Preview of NWS' New Version of Forecast
This preview is not operational and should not be used for support decisions.

Regional Weather Roundup (RWR)

Issued by Jackson, KY (JKL)

                            
538 
ASUS43 KJKL 212310
RWRJKL

EAST KENTUCKY HOURLY WEATHER ROUNDUP
NATIONAL WEATHER SERVICE JACKSON KY
700 PM EDT THU JUN 21 2018

NOTE: "FAIR" INDICATES FEW OR NO CLOUDS BELOW 12,000 FEET WITH
NO SIGNIFICANT WEATHER AND/OR OBSTRUCTIONS TO VISIBILITY.

* THESE REPORTS ARE NOT UNDER NWS QUALITY CONTROL AND MAY NOT
  REPORT WEATHER SUCH AS PRECIPITATION AND FOG.

KYZ079-080-083-085-087-088-110-112-115-119-120-220000
...EASTERN KENTUCKY...
  
CITY           SKY/WX    TMP DP  RH WIND       PRES   REMARKS
JACKSON          N/A     78  71  79 CALM      29.79S                  
LONDON           N/A     80  69  69 S7        29.78F                  
SOMERSET*      LGT RAIN  73  72  94 CALM      29.78S                  
MONTICELLO*    LGT RAIN  75  73  93 W10G22    29.79F                  
WILLIAMSBURG*    N/A     75  73  94 CALM      29.80S                  
MIDDLESBORO*   CLOUDY    77  71  82 S3        29.81F                  
HARLAN APT*    CLOUDY    73  69  89 CALM      29.83S                  
PIKE CO APT*   PTSUNNY   75  69  79 SW7       29.81S                  
BIG SANDY APT* MOCLDY    75  72  89 W5        29.80S                  
MOREHEAD APT*  MOCLDY    77  72  83 SW6       29.77F                  
ASHLAND*       CLOUDY    73  72  94 CALM      29.75F                  
$$

KYZ035-036-041-042-044-050-067-078-099-220000
...CENTRAL KENTUCKY...
  
CITY           SKY/WX    TMP DP  RH WIND       PRES   REMARKS
MT STERLING*     N/A     77  70  78 SW6       29.78S                  
FLEMING/MASON* PTSUNNY   77  73  87 W8        29.76S                  
DANVILLE*      PTSUNNY   77  70  78 SW6       29.76F                  
LEXINGTON        N/A     76  71  85 SW10      29.75F                  
FRANKFORT      PTSUNNY   77  70  79 SW5       29.72F                  
LOUISVILLE     PTSUNNY   80  71  74 S8        29.70F                  
LEBANON*         N/A     79  70  73 SW7       29.73F                  
GLASGOW*         N/A     81  72  75 S6        29.73F                  
BOWLING GREEN    N/A     83  72  69 SW7       29.72F                  
$$

KYZ091>093-OHZ055-061-077-WVZ005-015-034-035-042-220000
...SOUTHERN OHIO/WEST VIRGINIA...
  
CITY           SKY/WX    TMP DP  RH WIND       PRES   REMARKS
COVINGTON      PTSUNNY   76  69  79 N5        29.72F                  
COLUMBUS       HVY RAIN  70  67  90 E13       29.77R VSB 1            
DAYTON         LGT RAIN  70  69  97 E6        29.76S FOG              
WILMINGTON     LGT RAIN  71  71 100 E7        29.74F                  
HUNTINGTON     LGT RAIN  74  70  87 SW8       29.76R FOG              
CHARLESTON     TSTM      72  71  97 N3        29.76F FOG              
PINEVILLE*     PTSUNNY   73  71  93 MISG      29.88R                  
BECKLEY        LGT RAIN  69  66  90 S3        29.86S                  
BLUEFIELD      PTSUNNY   68  68 100 W6        29.89S                  
LOGAN CO APT*  MOCLDY    72  72 100 CALM      29.81R                  
$$

VAZ002-007-008-TNZ017-027-036-066-071-220000
...SOUTHWEST VIRGINIA/EAST TENNESSEE...
  
CITY           SKY/WX    TMP DP  RH WIND       PRES   REMARKS
WISE*          CLOUDY    72  72 100 SW9       29.90S                  
JONESVILLE*      N/A     75  68  78 CALM      29.85S                  
ABINGDON*      CLOUDY    73  71  92 NW5       29.87F                  
BRISTOL        CLOUDY    75  71  87 SW7       29.85S                  
MORRISTOWN*    PTCLDY    77  70  78 SW6       29.83S                  
SEVIERVILLE*   CLEAR     77  70  78 CALM      29.82S                  
KNOXVILLE      PTSUNNY   77  72  84 S7        29.80F                  
LAFOLLETTE*    CLOUDY    77  72  83 S3        29.83F                  
OAK RIDGE      PTSUNNY   80  72  76 S5        29.80F                  
CROSSVILLE     CLOUDY    76  68  76 VRB5      29.83F                  
$$

...KEY TO REMARKS...
VSB - VISIBILITY IN MILES
WCI - WIND CHILL INDEX
HX  - HEAT INDEX

$$